Time,TemperatureF,DewpointF,PressureIn,WindDirection,WindDirectionDegrees,WindSpeedMPH,WindSpeedGustMPH,Humidity,HourlyPrecipIn,Conditions,Clouds,dailyrainin,SoftwareType,DateUTC
2013-05-07 00:03:00,59.0,50.0,29.98,East,95,3.0,-999.0,73,-99.99,,,-99.99,,2013-05-07 04:03:00,
2013-05-07 00:12:00,59.0,50.0,29.98,East,95,3.0,-999.0,73,-99.99,,,-99.99,,2013-05-07 04:12:00,
2013-05-07 00:23:00,60.0,47.0,29.98,East,85,4.0,-999.0,62,-99.99,,,-99.99,,2013-05-07 04:23:00,
2013-05-07 00:33:00,60.0,47.0,29.98,East,85,4.0,-999.0,62,-99.99,,,-99.99,,2013-05-07 04:33:00,
2013-05-07 00:42:00,60.0,47.0,29.98,East,85,4.0,-999.0,62,-99.99,,,-99.99,,2013-05-07 04:42:00,
2013-05-07 00:53:00,60.0,47.0,29.98,East,96,3.0,-999.0,62,-99.99,,,-99.99,,2013-05-07 04:53:00,
2013-05-07 01:02:00,60.0,47.0,29.98,East,95,1.0,-999.0,63,-99.99,,,-99.99,,2013-05-07 05:02:00,
2013-05-07 01:12:00,60.0,47.0,29.98,East,95,1.0,-999.0,63,-99.99,,,-99.99,,2013-05-07 05:12:00,
2013-05-07 01:22:00,60.0,47.0,29.98,ESE,123,1.0,-999.0,63,-99.99,,,-99.99,,2013-05-07 05:22:00,
2013-05-07 01:32:00,60.0,46.0,29.99,East,93,2.0,-999.0,60,-99.99,,,-99.99,,2013-05-07 05:32:00,
2013-05-07 01:42:00,60.0,46.0,29.99,East,93,2.0,-999.0,60,-99.99,,,-99.99,,2013-05-07 05:42:00,
2013-05-07 01:52:00,59.0,45.0,29.99,ENE,76,1.0,-999.0,60,-99.99,,,-99.99,,2013-05-07 05:52:00,
2013-05-07 02:02:00,60.0,45.0,29.99,East,98,4.0,-999.0,58,-99.99,,,-99.99,,2013-05-07 06:02:00,
2013-05-07 02:12:00,60.0,45.0,29.99,East,98,4.0,-999.0,58,-99.99,,,-99.99,,2013-05-07 06:12:00,
2013-05-07 02:22:00,59.0,48.0,29.99,NE,54,2.0,-999.0,66,-99.99,,,-99.99,,2013-05-07 06:22:00,
2013-05-07 02:32:00,58.0,49.0,29.99,NE,56,3.0,-999.0,72,-99.99,,,-99.99,,2013-05-07 06:32:00,
2013-05-07 02:42:00,58.0,49.0,29.99,NE,56,3.0,-999.0,72,-99.99,,,-99.99,,2013-05-07 06:42:00,
2013-05-07 02:52:00,56.0,49.0,29.99,North,355,2.0,-999.0,76,-99.99,,,-99.99,,2013-05-07 06:52:00,
2013-05-07 03:02:00,55.0,48.0,29.99,NE,44,4.0,-999.0,78,-99.99,,,-99.99,,2013-05-07 07:02:00,
2013-05-07 03:11:00,55.0,48.0,29.99,NE,44,4.0,-999.0,78,-99.99,,,-99.99,,2013-05-07 07:11:00,
2013-05-07 03:22:00,56.0,48.0,29.99,ENE,63,4.0,-999.0,75,-99.99,,,-99.99,,2013-05-07 07:22:00,
2013-05-07 03:32:00,56.0,49.0,29.99,ENE,57,3.0,-999.0,77,-99.99,,,-99.99,,2013-05-07 07:32:00,
2013-05-07 03:42:00,56.0,49.0,29.99,ENE,57,3.0,-999.0,77,-99.99,,,-99.99,,2013-05-07 07:42:00,
2013-05-07 03:52:00,55.0,49.0,29.99,ENE,58,2.0,-999.0,79,-99.99,,,-99.99,,2013-05-07 07:52:00,
2013-05-07 04:02:00,55.0,49.0,29.99,NE,53,1.0,-999.0,80,-99.99,,,-99.99,,2013-05-07 08:02:00,
2013-05-07 04:11:00,55.0,49.0,29.99,NE,53,1.0,-999.0,80,-99.99,,,-99.99,,2013-05-07 08:11:00,
2013-05-07 04:22:00,54.0,48.0,29.99,NE,41,1.0,-999.0,80,-99.99,,,-99.99,,2013-05-07 08:22:00,
2013-05-07 04:32:00,54.0,49.0,29.99,NE,34,2.0,-999.0,83,-99.99,,,-99.99,,2013-05-07 08:32:00,
2013-05-07 04:42:00,54.0,49.0,29.99,NE,34,2.0,-999.0,83,-99.99,,,-99.99,,2013-05-07 08:42:00,
2013-05-07 04:52:00,52.0,47.0,29.99,North,5,2.0,-999.0,84,-99.99,,,-99.99,,2013-05-07 08:52:00,
2013-05-07 05:01:00,51.0,46.0,29.99,NNW,342,3.0,-999.0,83,-99.99,,,-99.99,,2013-05-07 09:01:00,
2013-05-07 05:11:00,51.0,46.0,29.99,NNW,342,3.0,-999.0,83,-99.99,,,-99.99,,2013-05-07 09:11:00,
2013-05-07 05:22:00,51.0,46.0,29.99,NNW,342,3.0,-999.0,83,-99.99,,,-99.99,,2013-05-07 09:22:00,
2013-05-07 05:33:00,48.0,44.0,29.99,NNW,341,1.0,-999.0,86,-99.99,,,-99.99,,2013-05-07 09:33:00,
2013-05-07 05:43:00,48.0,44.0,29.99,NNW,341,1.0,-999.0,86,-99.99,,,-99.99,,2013-05-07 09:43:00,
2013-05-07 05:52:00,48.0,45.0,29.99,NNW,341,4.0,-999.0,88,-99.99,,,-99.99,,2013-05-07 09:52:00,
2013-05-07 06:03:00,47.0,44.0,29.99,NNW,341,4.0,-999.0,88,-99.99,,,-99.99,,2013-05-07 10:03:00,
2013-05-07 06:12:00,47.0,44.0,29.99,NNW,341,4.0,-999.0,88,-99.99,,,-99.99,,2013-05-07 10:12:00,
2013-05-07 06:23:00,47.0,43.0,29.99,NNW,341,4.0,-999.0,87,-99.99,,,-99.99,,2013-05-07 10:23:00,
2013-05-07 06:32:00,47.0,43.0,30.00,NNW,341,2.0,-999.0,86,-99.99,,,-99.99,,2013-05-07 10:32:00,
2013-05-07 06:42:00,47.0,43.0,30.00,NNW,341,0.0,-999.0,86,-99.99,,,-99.99,,2013-05-07 10:42:00,
2013-05-07 06:52:00,47.0,43.0,30.00,NNW,341,0.0,-999.0,86,-99.99,,,-99.99,,2013-05-07 10:52:00,
2013-05-07 07:02:00,47.0,43.0,30.00,NNW,341,0.0,-999.0,85,-99.99,,,-99.99,,2013-05-07 11:02:00,
2013-05-07 07:12:00,47.0,43.0,30.00,NNW,341,0.0,-999.0,85,-99.99,,,-99.99,,2013-05-07 11:12:00,
2013-05-07 07:22:00,47.0,43.0,30.01,NNW,341,0.0,-999.0,85,-99.99,,,-99.99,,2013-05-07 11:22:00,
2013-05-07 07:32:00,47.0,42.0,30.02,NNW,342,0.0,-999.0,84,-99.99,,,-99.99,,2013-05-07 11:32:00,
2013-05-07 07:42:00,47.0,42.0,30.02,NNW,342,0.0,-999.0,84,-99.99,,,-99.99,,2013-05-07 11:42:00,
2013-05-07 07:52:00,48.0,43.0,30.02,NNW,342,1.0,-999.0,82,-99.99,,,-99.99,,2013-05-07 11:52:00,
2013-05-07 08:02:00,49.0,43.0,30.03,NNW,342,2.0,-999.0,81,-99.99,,,-99.99,,2013-05-07 12:02:00,
2013-05-07 08:12:00,49.0,43.0,30.03,NNW,342,2.0,-999.0,81,-99.99,,,-99.99,,2013-05-07 12:12:00,
2013-05-07 08:22:00,51.0,45.0,30.03,NNW,342,3.0,-999.0,79,-99.99,,,-99.99,,2013-05-07 12:22:00,
2013-05-07 08:32:00,54.0,48.0,30.03,NNE,24,3.0,-999.0,80,-99.99,,,-99.99,,2013-05-07 12:32:00,
2013-05-07 08:42:00,54.0,48.0,30.03,NNE,24,3.0,-999.0,80,-99.99,,,-99.99,,2013-05-07 12:42:00,
2013-05-07 08:52:00,56.0,50.0,30.03,NNE,30,6.0,-999.0,79,-99.99,,,-99.99,,2013-05-07 12:52:00,
2013-05-07 09:02:00,57.0,50.0,30.03,ENE,57,7.0,-999.0,77,-99.99,,,-99.99,,2013-05-07 13:02:00,
2013-05-07 09:11:00,57.0,50.0,30.03,ENE,57,7.0,-999.0,77,-99.99,,,-99.99,,2013-05-07 13:11:00,
2013-05-07 09:22:00,57.0,50.0,30.04,NNE,28,6.0,-999.0,77,-99.99,,,-99.99,,2013-05-07 13:22:00,
2013-05-07 09:32:00,57.0,50.0,30.04,NE,36,6.0,-999.0,77,-99.99,,,-99.99,,2013-05-07 13:32:00,
2013-05-07 09:42:00,57.0,50.0,30.04,NE,36,6.0,-999.0,77,-99.99,,,-99.99,,2013-05-07 13:42:00,
2013-05-07 09:52:00,57.0,50.0,30.04,ENE,59,6.0,-999.0,78,-99.99,,,-99.99,,2013-05-07 13:52:00,
2013-05-07 10:02:00,57.0,49.0,30.04,NE,40,6.0,-999.0,75,-99.99,,,-99.99,,2013-05-07 14:02:00,
2013-05-07 10:11:00,57.0,49.0,30.04,NE,40,6.0,-999.0,75,-99.99,,,-99.99,,2013-05-07 14:11:00,
2013-05-07 10:21:00,57.0,50.0,30.04,NE,49,8.0,-999.0,76,-99.99,,,-99.99,,2013-05-07 14:21:00,
2013-05-07 10:32:00,57.0,50.0,30.04,ENE,67,7.0,-999.0,76,-99.99,,,-99.99,,2013-05-07 14:32:00,
2013-05-07 10:42:00,57.0,50.0,30.04,ENE,67,7.0,-999.0,76,-99.99,,,-99.99,,2013-05-07 14:42:00,
2013-05-07 10:52:00,57.0,50.0,30.04,NE,35,7.0,-999.0,78,-99.99,,,-99.99,,2013-05-07 14:52:00,
2013-05-07 11:01:00,58.0,50.0,30.04,NE,45,6.0,-999.0,74,-99.99,,,-99.99,,2013-05-07 15:01:00,
2013-05-07 11:12:00,58.0,50.0,30.04,NE,45,6.0,-999.0,74,-99.99,,,-99.99,,2013-05-07 15:12:00,
2013-05-07 11:21:00,58.0,48.0,30.04,ENE,59,7.0,-999.0,70,-99.99,,,-99.99,,2013-05-07 15:21:00,
2013-05-07 11:33:00,58.0,47.0,30.04,NE,54,7.0,-999.0,68,-99.99,,,-99.99,,2013-05-07 15:33:00,
2013-05-07 11:42:00,58.0,47.0,30.04,NE,54,7.0,-999.0,68,-99.99,,,-99.99,,2013-05-07 15:42:00,
2013-05-07 11:53:00,58.0,47.0,30.04,NE,54,7.0,-999.0,68,-99.99,,,-99.99,,2013-05-07 15:53:00,
2013-05-07 12:03:00,60.0,49.0,30.04,North,9,6.0,-999.0,66,-99.99,,,-99.99,,2013-05-07 16:03:00,
2013-05-07 12:12:00,60.0,49.0,30.04,North,9,6.0,-999.0,66,-99.99,,,-99.99,,2013-05-07 16:12:00,
2013-05-07 12:22:00,60.0,47.0,30.04,NE,36,7.0,-999.0,63,-99.99,,,-99.99,,2013-05-07 16:22:00,
2013-05-07 12:32:00,60.0,47.0,30.04,ENE,60,7.0,-999.0,61,-99.99,,,-99.99,,2013-05-07 16:32:00,
2013-05-07 12:42:00,60.0,47.0,30.04,ENE,60,7.0,-999.0,61,-99.99,,,-99.99,,2013-05-07 16:42:00,
2013-05-07 12:51:00,60.0,47.0,30.04,ENE,60,7.0,-999.0,61,-99.99,,,-99.99,,2013-05-07 16:51:00,
2013-05-07 13:01:00,61.0,48.0,30.03,NE,51,8.0,-999.0,62,-99.99,,,-99.99,,2013-05-07 17:01:00,
2013-05-07 13:12:00,61.0,48.0,30.03,NE,51,8.0,-999.0,62,-99.99,,,-99.99,,2013-05-07 17:12:00,
2013-05-07 13:21:00,62.0,48.0,30.03,ENE,70,8.0,-999.0,60,-99.99,,,-99.99,,2013-05-07 17:21:00,
2013-05-07 13:32:00,62.0,47.0,30.03,NE,56,8.0,-999.0,59,-99.99,,,-99.99,,2013-05-07 17:32:00,
2013-05-07 13:41:00,62.0,47.0,30.03,NE,56,8.0,-999.0,59,-99.99,,,-99.99,,2013-05-07 17:41:00,
2013-05-07 13:52:00,62.0,48.0,30.02,NNE,27,8.0,-999.0,60,-99.99,,,-99.99,,2013-05-07 17:52:00,
2013-05-07 14:01:00,63.0,49.0,30.02,ENE,62,7.0,-999.0,61,-99.99,,,-99.99,,2013-05-07 18:01:00,
2013-05-07 14:11:00,63.0,49.0,30.02,ENE,62,7.0,-999.0,61,-99.99,,,-99.99,,2013-05-07 18:11:00,
2013-05-07 14:21:00,65.0,49.0,30.02,ENE,57,7.0,-999.0,57,-99.99,,,-99.99,,2013-05-07 18:21:00,
2013-05-07 14:32:00,66.0,47.0,30.01,NNE,32,7.0,-999.0,50,-99.99,,,-99.99,,2013-05-07 18:32:00,
2013-05-07 14:42:00,66.0,47.0,30.01,NNE,32,7.0,-999.0,50,-99.99,,,-99.99,,2013-05-07 18:42:00,
2013-05-07 14:51:00,67.0,43.0,30.01,NE,41,9.0,-999.0,42,-99.99,,,-99.99,,2013-05-07 18:51:00,
2013-05-07 15:02:00,69.0,42.0,30.01,NE,44,11.0,-999.0,37,-99.99,,,-99.99,,2013-05-07 19:02:00,
2013-05-07 15:11:00,69.0,42.0,30.01,NE,44,11.0,-999.0,37,-99.99,,,-99.99,,2013-05-07 19:11:00,
2013-05-07 15:21:00,68.0,43.0,30.01,NE,53,11.0,-999.0,40,-99.99,,,-99.99,,2013-05-07 19:21:00,
2013-05-07 15:32:00,68.0,46.0,30.00,NE,37,11.0,-999.0,45,-99.99,,,-99.99,,2013-05-07 19:32:00,
2013-05-07 15:42:00,68.0,46.0,30.00,NE,37,11.0,-999.0,45,-99.99,,,-99.99,,2013-05-07 19:42:00,
2013-05-07 15:52:00,67.0,47.0,30.00,ENE,58,13.0,-999.0,48,-99.99,,,-99.99,,2013-05-07 19:52:00,
2013-05-07 16:02:00,66.0,47.0,29.99,NNE,20,13.0,-999.0,51,-99.99,,,-99.99,,2013-05-07 20:02:00,
2013-05-07 16:12:00,66.0,47.0,29.99,NNE,20,13.0,-999.0,51,-99.99,,,-99.99,,2013-05-07 20:12:00,
2013-05-07 16:22:00,66.0,48.0,29.99,NE,49,14.0,-999.0,53,-99.99,,,-99.99,,2013-05-07 20:22:00,
2013-05-07 16:32:00,65.0,47.0,29.98,NNE,19,12.0,-999.0,53,-99.99,,,-99.99,,2013-05-07 20:32:00,
2013-05-07 16:42:00,65.0,47.0,29.98,NNE,19,12.0,-999.0,53,-99.99,,,-99.99,,2013-05-07 20:42:00,
2013-05-07 16:51:00,64.0,46.0,29.98,NE,44,12.0,-999.0,52,-99.99,,,-99.99,,2013-05-07 20:51:00,
2013-05-07 17:02:00,64.0,48.0,29.98,NE,42,12.0,-999.0,57,-99.99,,,-99.99,,2013-05-07 21:02:00,
2013-05-07 17:11:00,64.0,48.0,29.98,NE,42,12.0,-999.0,57,-99.99,,,-99.99,,2013-05-07 21:11:00,
2013-05-07 17:22:00,65.0,48.0,29.98,NNE,26,13.0,-999.0,55,-99.99,,,-99.99,,2013-05-07 21:22:00,
2013-05-07 17:33:00,65.0,47.0,29.97,NE,36,13.0,-999.0,53,-99.99,,,-99.99,,2013-05-07 21:33:00,
2013-05-07 17:42:00,65.0,47.0,29.97,NE,36,13.0,-999.0,53,-99.99,,,-99.99,,2013-05-07 21:42:00,
2013-05-07 17:53:00,65.0,46.0,29.97,NE,34,15.0,-999.0,51,-99.99,,,-99.99,,2013-05-07 21:53:00,
2013-05-07 18:02:00,65.0,47.0,29.97,NNE,32,13.0,-999.0,52,-99.99,,,-99.99,,2013-05-07 22:02:00,
2013-05-07 18:13:00,65.0,47.0,29.97,NNE,32,13.0,-999.0,52,-99.99,,,-99.99,,2013-05-07 22:13:00,
2013-05-07 18:22:00,64.0,47.0,29.97,NE,44,13.0,-999.0,54,-99.99,,,-99.99,,2013-05-07 22:22:00,
2013-05-07 18:33:00,64.0,47.0,29.97,NE,49,12.0,-999.0,55,-99.99,,,-99.99,,2013-05-07 22:33:00,
2013-05-07 18:42:00,64.0,47.0,29.97,NE,49,12.0,-999.0,55,-99.99,,,-99.99,,2013-05-07 22:42:00,
2013-05-07 18:52:00,63.0,48.0,29.97,North,11,11.0,-999.0,57,-99.99,,,-99.99,,2013-05-07 22:52:00,
2013-05-07 19:02:00,63.0,48.0,29.97,NE,43,12.0,-999.0,57,-99.99,,,-99.99,,2013-05-07 23:02:00,
2013-05-07 19:12:00,63.0,48.0,29.97,NE,43,12.0,-999.0,57,-99.99,,,-99.99,,2013-05-07 23:12:00,
2013-05-07 19:21:00,62.0,47.0,29.97,ENE,67,11.0,-999.0,59,-99.99,,,-99.99,,2013-05-07 23:21:00,
2013-05-07 19:32:00,62.0,48.0,29.97,NE,38,10.0,-999.0,61,-99.99,,,-99.99,,2013-05-07 23:32:00,
2013-05-07 19:42:00,62.0,48.0,29.97,NE,38,10.0,-999.0,61,-99.99,,,-99.99,,2013-05-07 23:42:00,
2013-05-07 19:52:00,62.0,48.0,29.97,NNE,30,10.0,-999.0,61,-99.99,,,-99.99,,2013-05-07 23:52:00,
2013-05-07 20:02:00,62.0,48.0,29.97,NNE,33,10.0,-999.0,60,-99.99,,,-99.99,,2013-05-08 00:02:00,
2013-05-07 20:12:00,62.0,48.0,29.97,NNE,33,10.0,-999.0,60,-99.99,,,-99.99,,2013-05-08 00:12:00,
2013-05-07 20:22:00,61.0,47.0,29.97,NNE,28,12.0,-999.0,60,-99.99,,,-99.99,,2013-05-08 00:22:00,
2013-05-07 20:32:00,61.0,48.0,29.97,NNE,26,10.0,-999.0,62,-99.99,,,-99.99,,2013-05-08 00:32:00,
2013-05-07 20:42:00,61.0,48.0,29.97,NNE,26,10.0,-999.0,62,-99.99,,,-99.99,,2013-05-08 00:42:00,
2013-05-07 20:51:00,60.0,47.0,29.97,NNE,29,10.0,-999.0,62,-99.99,,,-99.99,,2013-05-08 00:51:00,
2013-05-07 21:02:00,60.0,47.0,29.98,NNE,31,10.0,-999.0,62,-99.99,,,-99.99,,2013-05-08 01:02:00,
2013-05-07 21:11:00,60.0,47.0,29.98,NNE,31,10.0,-999.0,62,-99.99,,,-99.99,,2013-05-08 01:11:00,
2013-05-07 21:22:00,60.0,47.0,29.98,NNE,16,9.0,-999.0,62,-99.99,,,-99.99,,2013-05-08 01:22:00,
2013-05-07 21:32:00,60.0,47.0,29.98,NNE,24,9.0,-999.0,62,-99.99,,,-99.99,,2013-05-08 01:32:00,
2013-05-07 21:42:00,60.0,47.0,29.98,NNE,24,9.0,-999.0,62,-99.99,,,-99.99,,2013-05-08 01:42:00,
2013-05-07 21:52:00,60.0,47.0,29.98,NNE,26,8.0,-999.0,63,-99.99,,,-99.99,,2013-05-08 01:52:00,
2013-05-07 22:02:00,60.0,48.0,29.98,NE,43,7.0,-999.0,64,-99.99,,,-99.99,,2013-05-08 02:02:00,
2013-05-07 22:12:00,60.0,48.0,29.98,NE,43,7.0,-999.0,64,-99.99,,,-99.99,,2013-05-08 02:12:00,
2013-05-07 22:22:00,60.0,49.0,29.99,NE,53,6.0,-999.0,67,-99.99,,,-99.99,,2013-05-08 02:22:00,
2013-05-07 22:32:00,59.0,49.0,29.99,ENE,72,6.0,-999.0,69,-99.99,,,-99.99,,2013-05-08 02:32:00,
2013-05-07 22:42:00,59.0,49.0,29.99,ENE,72,6.0,-999.0,69,-99.99,,,-99.99,,2013-05-08 02:42:00,
2013-05-07 22:52:00,59.0,49.0,29.99,NE,40,4.0,-999.0,69,-99.99,,,-99.99,,2013-05-08 02:52:00,
2013-05-07 23:02:00,59.0,50.0,29.99,NNE,33,4.0,-999.0,71,-99.99,,,-99.99,,2013-05-08 03:02:00,
2013-05-07 23:11:00,59.0,50.0,29.99,NNE,33,4.0,-999.0,71,-99.99,,,-99.99,,2013-05-08 03:11:00,
2013-05-07 23:22:00,58.0,49.0,29.99,NNE,30,4.0,-999.0,73,-99.99,,,-99.99,,2013-05-08 03:22:00,
2013-05-07 23:33:00,58.0,50.0,30.00,NE,55,3.0,-999.0,76,-99.99,,,-99.99,,2013-05-08 03:33:00,
2013-05-07 23:43:00,58.0,50.0,30.00,NE,55,3.0,-999.0,76,-99.99,,,-99.99,,2013-05-08 03:43:00,
2013-05-07 23:52:00,58.0,51.0,29.99,NNE,32,4.0,-999.0,77,-99.99,,,-99.99,,2013-05-08 03:52:00,